Ачисай

Казахстан     43˚33′08″N   68˚54′06″E
темп.,
°C
ветер,
м/с
пор.,
м/с
влажн.,
%
обл.,
%
осадки,
мм/ч
давл.,
гПа
погр.,
м
5 декабря, сб
сб523:00−11˚юз488326 0.0 1033277
02:00−11˚юз498893 0.0 1033313
05:00−12˚юз379696 0.1 1034228
08:00−11˚зюз3698100 0.2 1034228
11:00−10˚юз358698 0.2 1034337
14:00−8˚юз347610 0.0 1033334
17:00−12˚ююз119012 0.0 103421
20:00−11˚всв118898 0.0 103421
6 декабря, вс
вс623:00−11˚ююз228399 0.0 103429
02:00−11˚юз1286100 0.0 103321
05:00−11˚ю1283100 0.0 103421
08:00−10˚ююз2283100 0.0 103428
11:00−7˚юз3372100 0.0 1034176
14:00−5˚юз226494 0.0 1033181
17:00−10˚ююв017847 0.0 103321
20:00−10˚в01640 0.0 103321
7 декабря, пн
пн723:00−10˚зсз01660 0.0 103121
02:00−10˚зюз01600 0.0 103121
05:00−11˚вюв01640 0.0 103021
08:00−11˚юз22660 0.0 103021
11:00−8˚ююз33690 0.0 1031163
14:00−8˚юз33710 0.0 1031245
17:00−13˚ююз11890 0.0 103321
20:00−14˚юз11860 0.0 103420
8 декабря, вт
вт823:00−14˚юз12790 0.0 103520
02:00−14˚юз11750 0.0 103520
05:00−15˚в01690 0.0 103621
08:00−14˚ссз01650 0.0 103720
11:00−9˚юз01530 0.0 1038102
14:00−8˚в11600 0.0 1038192
17:00−12˚ссв22760 0.0 104021
20:00−12˚ссв33750 0.0 104127
9 декабря, ср
ср923:00−12˚ссв44780 0.0 104240
02:00−11˚ссв45760 0.0 104245
05:00−10˚ссв56720 0.0 104178
08:00−9˚ссв69670 0.0 1041101
11:00−6˚ссв69640 0.0 1040228
14:00−5˚ссв68650 0.0 1038224
17:00−9˚ссв68700 0.0 1038113
20:00−9˚ссв79710 0.0 1037133